Main page
METAR-TAF:

METAR-TAF

Airports :

K13-a, Netherlands

Oil platform

latitude: 53-13-04N, longitude: 3-13-13E, elevation: 31 m

Current weather observation

The report was made 32 minutes ago, at 01:55 UTC
Wind 18 kt from the North
Temperature 7°C
Humidity 57%
Pressure 1019 hPa

METAR: EHJR 170155Z AUTO 35018KT //// // ///////// 07/M01 Q1019 RE// W08/H18

Time: 03:27 (02:27 UTC)


TAF: missing

Weather observations and forecasts of more than 4000 airports (METAR and TAF reports).

The available stations are represented by yellow and red dots on the map.

Hover mouse over dot to see the name of the station.

Then click to see weather observations and forecasts.

To change the map : click on the green buttons with a black cross to zoom in, on the green button with a dash to zoom out, or on the green arrows for adjacent maps.


METAR-TAF: